This is the latest recevied weather packets stored in our database for station/object W5ADC. If no packets are shown the sender has not sent any weather packets the latest 10 day(s).
| Time | Temp. | Humidity | Pressure | Rain* | Wind** | Luminosity | Snow |
|---|---|---|---|---|---|---|---|
| 1777846417 | 27.22° C | 31% | 1012.7 hPa | 0 mm | - | 385 W/m² | - |
| 1777846112 | 27.22° C | 31% | 1012.5 hPa | 0 mm | - | 403 W/m² | - |
| 1777845810 | 27.22° C | 32% | 1012.6 hPa | 0 mm | - | 417 W/m² | - |
| 1777845507 | 27.22° C | 32% | 1012.5 hPa | 0 mm | - | 437 W/m² | - |
| 1777845204 | 27.22° C | 31% | 1012.5 hPa | 0 mm | - | 453 W/m² | - |
| 1777844902 | 27.22° C | 31% | 1012.6 hPa | 0 mm | - | 473 W/m² | - |
| 1777844599 | 27.22° C | 30% | 1012.7 hPa | 0 mm | - | 482 W/m² | - |
| 1777844296 | 27.22° C | 32% | 1012.7 hPa | 0 mm | - | 500 W/m² | - |
| 1777843994 | 27.22° C | 32% | 1012.9 hPa | 0 mm | - | 513 W/m² | - |
| 1777843690 | 27.22° C | 32% | 1012.9 hPa | 0 mm | - | 525 W/m² | - |
| 1777843388 | 27.78° C | 31% | 1012.9 hPa | 0 mm | - | 539 W/m² | - |
| 1777843085 | 27.22° C | 32% | 1013 hPa | 0 mm | - | 553 W/m² | - |
| 1777842782 | 27.22° C | 32% | 1012.9 hPa | 0 mm | - | 567 W/m² | - |
| 1777842482 | 27.22° C | 32% | 1013.2 hPa | 0 mm | - | 576 W/m² | - |
| 1777842180 | 27.78° C | 32% | 1013.5 hPa | 0 mm | - | 593 W/m² | - |
| 1777841874 | 27.22° C | 34% | 1013.2 hPa | 0 mm | - | 609 W/m² | - |
| 1777841571 | 27.22° C | 33% | 1013.5 hPa | 0 mm | - | 627 W/m² | - |
| 1777841268 | 27.22° C | 33% | 1013.3 hPa | 0 mm | - | 628 W/m² | - |
| 1777840965 | 27.22° C | 32% | 1013.6 hPa | 0 mm | - | 644 W/m² | - |
| 1777840663 | 27.22° C | 33% | 1013.6 hPa | 0 mm | - | 651 W/m² | - |
| 1777840360 | 27.78° C | 33% | 1013.8 hPa | 0 mm | - | 674 W/m² | - |
| 1777840057 | 27.22° C | 33% | 1014.1 hPa | 0 mm | - | 682 W/m² | - |
| 1777839755 | 27.78° C | 35% | 1013.9 hPa | 0 mm | - | 707 W/m² | - |
| 1777839452 | 26.11° C | 37% | 1014 hPa | 0 mm | - | 750 W/m² | - |
| 1777839150 | 26.67° C | 36% | 1014.2 hPa | 0 mm | - | 198 W/m² | - |
* Rain latest hour (hover to see other rain measurements)
** Current wind speed in m/s (hover to see current wind gust speed)